C/2010 S1 ( LINEAR )

Japanese version
Home page
Updated on December 16, 2014

---------------------------------------------------------------------

* Profile

Discovery Date September 21, 2010
Magnitude 18.4 mag
Discoverer Lincoln Laboratory Near-Earth Asteroid Research project

* Pictures

* Orbital Elements

Epoch 2013 May 28.0 TT = JDT 2456440.5
T 2013 May 20.29775 TT                                  MPCW
q   5.8999032            (2000.0)            P               Q
z  -0.0003254      Peri.  118.61457     +0.53547241     -0.22396561
 +/-0.0000001      Node    93.43035     -0.69559937     -0.66377817
e   1.0019198      Incl.  125.33579     +0.47896849     -0.71360910
From 8056 observations 2010 Sept. 21-2014 Oct. 22, mean residual 0".5.

* Finding Charts

* Magnitudes Graph

        m1 = -2.0 + 5 log d + 15.0 log r

---------------------------------------------------------------------

The orbital elements are published on M.P.E.C. 2014-W05.
The charts are made with StellaNavigator Ver.8 (AstroArts).
The magnitudes graphs are made with Comet for Windows.

---------------------------------------------------------------------

Copyright(C) Seiichi Yoshida (comet@aerith.net). All rights reserved.